Погода в Рябине

Украина / Сумская область     50°20′48″N   35°13′41″E
темп.,
°C
ветер,
м/с
пор.,
м/с
влажн.,
%
обл.,
%
осадки,
мм/ч
давл.,
гПа
погр.,
м
31 июля, сб
сб3100:00+20ссз33670 0.0 100952
03:00+19ссз22720 0.0 101016
06:00+19с11680 0.0 101111
09:00+25зсз22450 0.0 1011494
12:00+29зсз32320 0.0 10112128
15:00+31з33294 0.0 10102607
18:00+31зсз332929 0.0 10102595
21:00+25св114338 0.0 101111
1 августа, вс
вс100:00+23ююв11470 0.0 101111
03:00+22ююв225116 0.0 101211
06:00+21вюв11530 0.0 101311
09:00+29ююв22350 0.0 1012509
12:00+33юз442635 0.0 10123087
15:00+34юз442249 0.0 10113408
18:00+34зюз442335 0.0 10103126
21:00+28ююз343495 0.0 101064
2 августа, пн
пн200:00+25ююз344111 0.0 101046
03:00+23ююз335089 0.0 101144
06:00+22ююз35565 0.0 1011102
09:00+29ююз683719 0.0 1010663
12:00+34юз783119 0.0 10092435
15:00+35зюз7825100 0.0 10083158
18:00+34ююз582626 0.0 10062905
21:00+22всв2275100 0.6 100728
3 августа, вт
вт300:00+21сз249198 4.9 1008219
03:00+19юз36940 4.9 1008128
06:00+17з389410 0.0 1010364
09:00+18зсз5684100 0.0 1012634
12:00+21сз566448 0.0 1013997
15:00+26ссз564083 0.0 10132211
18:00+23сз464697 0.0 1014985
21:00+19сз33600 0.0 101534
4 августа, ср
ср400:00+18з226349 0.0 101612
03:00+20зсз2258100 0.0 101749
06:00+19сз22605 0.0 101754
09:00+23сз22482 0.0 1018748
12:00+27зсз343349 0.0 10182443
15:00+29зсз4428100 0.0 10162775
18:00+28сз333017 0.0 10162182
21:00+21св484952 0.0 1016142